INTELSAT 23 (IS-23)

Last updated on Mon Oct 20 2025 00:02:47 GMT+0000 (Coordinated Universal Time)

1 38867U 12057A 25292.25683050 -.00000287 00000+0 00000+0 0 9992 2 38867 0.0119 235.6531 0001980 17.1258 174.6787 1.00265927 47533
UTC large
Height (km)
Speed (km/s)
/
Latitude / Longitude
Inclination (degrees)
Orbital Period (minutes)
Azimuth
Elevation
Range (km)
Doppler Factor

Next 0 passes for location: London (51.5072 / 0.1276)

Sorry there are no passes over London.